TimeEDT,TemperatureF,Dew PointF,Humidity,Sea Level PressureIn,VisibilityMPH,Wind Direction,Wind SpeedMPH,Gust SpeedMPH,PrecipitationIn,Events,Conditions,WindDirDegrees,DateUTC
12:56 AM,47.8,46.9,97,30.09,10.0,Calm,Calm,-,N/A,,Clear,0,2013-07-25 04:56:00
1:56 AM,47.8,46.9,97,30.08,10.0,Calm,Calm,-,N/A,,Clear,0,2013-07-25 05:56:00
2:22 AM,46.4,46.4,100,30.07,1.8,Calm,Calm,-,N/A,,Clear,0,2013-07-25 06:22:00
2:32 AM,46.4,46.4,100,30.07,4.0,Calm,Calm,-,N/A,,Clear,0,2013-07-25 06:32:00
2:56 AM,45.9,45.0,97,30.08,2.0,Calm,Calm,-,N/A,,Clear,0,2013-07-25 06:56:00
3:04 AM,46.4,46.4,100,30.07,9.0,Calm,Calm,-,N/A,,Clear,0,2013-07-25 07:04:00
3:56 AM,46.9,45.9,96,30.07,10.0,ENE,4.6,-,N/A,,Clear,70,2013-07-25 07:56:00
4:56 AM,45.9,45.9,100,30.08,10.0,East,3.5,-,N/A,,Clear,90,2013-07-25 08:56:00
5:56 AM,45.0,45.0,100,30.10,10.0,Calm,Calm,-,N/A,,Clear,0,2013-07-25 09:56:00
6:04 AM,44.6,44.6,100,30.09,1.2,Calm,Calm,-,N/A,,Clear,0,2013-07-25 10:04:00
6:11 AM,44.6,44.6,100,30.10,1.0,East,3.5,-,N/A,,Clear,100,2013-07-25 10:11:00
6:13 AM,44.6,44.6,100,30.10,1.8,Calm,Calm,-,N/A,,Clear,0,2013-07-25 10:13:00
6:18 AM,44.6,44.6,100,30.10,10.0,Calm,Calm,-,N/A,Fog,Patches of Fog,0,2013-07-25 10:18:00
6:56 AM,46.9,45.9,96,30.12,10.0,Calm,Calm,-,N/A,Fog,Partly Cloudy,0,2013-07-25 10:56:00
7:56 AM,52.9,50.0,90,30.12,10.0,Calm,Calm,-,N/A,Fog,Partly Cloudy,0,2013-07-25 11:56:00
8:56 AM,59.0,52.9,80,30.14,10.0,SSE,3.5,-,N/A,,Partly Cloudy,160,2013-07-25 12:56:00
9:56 AM,61.9,47.8,60,30.13,10.0,ENE,8.1,-,N/A,,Clear,60,2013-07-25 13:56:00
10:56 AM,64.9,46.9,52,30.13,10.0,East,5.8,-,N/A,,Partly Cloudy,80,2013-07-25 14:56:00
11:56 AM,66.9,50.0,54,30.12,10.0,North,4.6,-,N/A,,Partly Cloudy,10,2013-07-25 15:56:00
12:56 PM,68.0,47.8,48,30.13,10.0,NNE,5.8,-,N/A,,Partly Cloudy,30,2013-07-25 16:56:00
1:56 PM,70.0,50.9,51,30.12,10.0,North,6.9,-,N/A,,Partly Cloudy,360,2013-07-25 17:56:00
2:56 PM,70.9,50.0,48,30.11,10.0,WNW,4.6,-,N/A,,Scattered Clouds,300,2013-07-25 18:56:00
3:56 PM,70.9,47.8,44,30.10,10.0,Variable,5.8,-,N/A,,Partly Cloudy,0,2013-07-25 19:56:00
4:56 PM,72.0,46.9,41,30.10,10.0,ENE,5.8,-,N/A,,Scattered Clouds,60,2013-07-25 20:56:00
5:28 PM,71.6,48.2,43,30.10,10.0,NE,6.9,-,N/A,,Partly Cloudy,40,2013-07-25 21:28:00
5:56 PM,70.9,48.9,46,30.10,10.0,ENE,4.6,-,N/A,,Partly Cloudy,60,2013-07-25 21:56:00
6:56 PM,70.0,47.8,45,30.11,10.0,NE,6.9,-,N/A,,Clear,40,2013-07-25 22:56:00
7:56 PM,66.9,52.0,59,30.12,10.0,Calm,Calm,-,N/A,,Clear,0,2013-07-25 23:56:00
8:56 PM,61.0,52.9,75,30.12,10.0,North,5.8,-,N/A,,Clear,10,2013-07-26 00:56:00
9:56 PM,59.0,52.9,80,30.12,10.0,NNE,4.6,-,N/A,,Clear,30,2013-07-26 01:56:00
10:56 PM,52.9,52.0,97,30.13,10.0,Calm,Calm,-,N/A,,Clear,0,2013-07-26 02:56:00
11:56 PM,52.0,50.9,96,30.13,10.0,Calm,Calm,-,N/A,,Clear,0,2013-07-26 03:56:00